Content
SEND FEEDBACK

Daily
Averages
Monthly
Summary
Greece

ANDRAVIDHA, GREECE


Home > Europe > Greece
Elevation: 50 feet     Latitude: 37 55N     Longitude: 021 17E

WEATHER
 
SELECT A DAY
Number of Records: 87,356;   Date Range: 7/11/96 - 7/20/14
 
SHARE

PRINT THIS DATA

[ ← Previous Day ]
WEATHER ALMANAC - MARCH 20, 2013
[ Next Day → ]
[ °C ]   °F
Weather ElementAverageHighLow
Temperature59.1 °F71.6 °F (1:20 pm)46 °F (2:00 am)
Dewpoint49.5 °F55.4 °F (5:50 pm)42.8 °F (6:50 am)
Humidity71.9 %94 % (12:50 am)40 % (12:50 pm)
Barometer29.80 in29.89 in (9:20 am)29.68 in (10:50 pm)
Wind Speed0.9 mph8.1 mph (1:50 pm)
Weather ElementAverage
Visibility6.2 mi
Wind DirectionNNE (38.5 °)

Weather ElementTotal
Precipitation---
Heating Degree Days6.2 (Base 65)
Growing Degree Days8.8 (Base 50)
Averaged from 43 records on March 20, 2013
WEATHER CONDITIONS BREAKOUT
WIND DIRECTION BREAKOUT
WEATHER BY HOUR - MARCH 20, 2013
[ °C ]   °F
Local TimeTemperatureDewpointHumidityBarometerVisibilityWind DirectionWind SpeedGust SpeedPrecipitationEventsConditions
12:50 AM50.0 °F48.2 °F94 %29.86 in6.2 miESE (110°)4.6 mphPartly Cloudy
1:20 AM50.0 °F48.2 °F94 %29.86 in6.2 miESE (110°)4.6 mphPartly Cloudy
2:00 AM46.0 °F44.0 °F89 %29.86 in6.0 miCalm
4:50 AM46.4 °F44.6 °F93 %29.83 inCalmClear
6:20 AM46.4 °F44.6 °F93 %29.86 inCalmClear
6:50 AM46.4 °F42.8 °F87 %29.86 in6.2 miCalmScattered Clouds
7:20 AM46.4 °F42.8 °F87 %29.86 in6.2 miCalmScattered Clouds
7:50 AM50.0 °F46.4 °F87 %29.86 in6.2 miCalmScattered Clouds
8:00 AM51.0 °F48.0 °F84 %29.87 in6.0 miCalmScattered Clouds
8:20 AM53.6 °F48.2 °F82 %29.86 in6.2 miCalmScattered Clouds
8:50 AM55.4 °F48.2 °F77 %29.86 in6.2 miCalmScattered Clouds
9:20 AM57.2 °F48.2 °F72 %29.89 in6.2 miCalmScattered Clouds
9:50 AM60.8 °F48.2 °F63 %29.89 in6.2 miCalmScattered Clouds
10:20 AM62.6 °F50.0 °F63 %29.89 in6.2 miCalmMostly Cloudy
10:50 AM62.6 °F48.2 °F59 %29.89 in6.2 miCalmMostly Cloudy
11:20 AM66.2 °F46.4 °F49 %29.89 in6.2 miCalmMostly Cloudy
11:50 AM66.2 °F46.4 °F49 %29.86 in6.2 miCalmScattered Clouds
12:20 PM68.0 °F44.6 °F43 %29.86 in6.2 miCalmScattered Clouds
12:50 PM69.8 °F44.6 °F40 %29.86 in6.2 miCalmScattered Clouds
1:20 PM71.6 °F46.4 °F41 %29.83 in6.2 miCalmScattered Clouds
1:50 PM68.0 °F53.6 °F60 %29.83 in6.2 miNNW (340°)8.1 mphScattered Clouds
2:00 PM68.0 °F52.0 °F45 %29.83 in6.0 miNorth6.9 mphScattered Clouds
2:20 PM68.0 °F53.6 °F60 %29.83 in6.2 miNNW (330°)5.8 mphScattered Clouds
2:50 PM68.0 °F51.8 °F56 %29.80 in6.2 miNNW (330°)4.6 mphScattered Clouds
3:20 PM68.0 °F51.8 °F56 %29.80 in6.2 miNW (320°)4.6 mphMostly Cloudy
3:50 PM68.0 °F53.6 °F60 %29.77 in6.2 miCalmMostly Cloudy
4:20 PM68.0 °F51.8 °F56 %29.77 in6.2 miCalmMostly Cloudy
4:50 PM66.2 °F53.6 °F64 %29.77 in6.2 miCalmMostly Cloudy
5:20 PM64.4 °F53.6 °F68 %29.77 in6.2 miCalmMostly Cloudy
5:50 PM64.4 °F55.4 °F73 %29.74 in6.2 miCalmMostly Cloudy
6:20 PM60.8 °F53.6 °F77 %29.74 in6.2 miCalmMostly Cloudy
6:50 PM60.8 °F51.8 °F72 %29.74 in6.2 miCalmMostly Cloudy
7:20 PM59.0 °F50.0 °F72 %29.74 in6.2 miCalmMostly Cloudy
7:50 PM57.2 °F51.8 °F82 %29.74 in6.2 miCalmMostly Cloudy
8:00 PM58.0 °F51.0 °F70 %29.74 in6.0 miCalmPartly Cloudy
8:20 PM57.2 °F51.8 °F82 %29.74 in6.2 miCalmMostly Cloudy
8:50 PM57.2 °F51.8 °F82 %29.71 in6.2 miCalmMostly Cloudy
9:20 PM57.2 °F51.8 °F82 %29.71 in6.2 miCalmMostly Cloudy
9:50 PM55.4 °F51.8 °F88 %29.71 in6.2 miCalmMostly Cloudy
10:20 PM55.4 °F51.8 °F88 %29.71 in6.2 miCalmMostly Cloudy
10:50 PM55.4 °F51.8 °F88 %29.68 in6.2 miCalmMostly Cloudy
11:20 PM55.4 °F50.0 °F82 %29.68 in6.2 miCalmMostly Cloudy
11:50 PM55.4 °F50.0 °F82 %29.68 in6.2 miCalmMostly Cloudy
Hourly data recorded from LGAD, located miles away from Andravidha, Greece







STORIES FROM OUR PARTNERS